Skip Page Navigation
NASA JPL Caltech
NASA Logo - Jet Propulsion Laboratory + View the NASA Portal
+ Center for Near-Earth Object Studies
JPL Home Earth Solar System Stars & Galaxies Technology
JPL Solar System Dynamics
BODIES ORBITS EPHEMERIDES TOOLS PHYSICAL DATA DISCOVERY FAQ SITE MAP
IMPORTANT: The SSD Announcement email list is now available. Major changes are coming in the near future, including possible hostname and/or URL changes. To be notified of such changes, subscribe to this email list.

Please visit this page for more details.


JPL Small-Body Database Browser
Search: [ help ]  
523480 (2017 FT162)
Classification: Main-belt Asteroid          SPK-ID: 2523480
Ephemeris | Orbit Diagram | Orbital Elements | Mission Design | Physical Parameters | Discovery Circumstances | Close-Approach Data ]

[ show orbit diagram ]
Orbital Elements at Epoch 2458600.5 (2019-Apr-27.0) TDB
Reference: JPL 5 (heliocentric ecliptic J2000)
 Element Value Uncertainty (1-sigma)   Units 
e .04632545798587869 7.6211e-08  
a 2.927473285734219 6.3931e-08 au
q 2.791856745031156 2.0601e-07 au
i 12.25983168177518 2.0532e-05 deg
node 23.20595498708333 3.333e-05 deg
peri 251.5571422734785 0.0002812 deg
M 67.13172919690869 0.00028383 deg
tp 2458259.336020879210
(2018-May-20.83602088)
0.0014428 TDB
period 1829.522849370308
5.01
5.9931e-05
1.641e-07
d
yr
n .1967726175838176 6.4458e-09 deg/d
Q 3.063089826437282 6.6893e-08 au
  Orbit Determination Parameters
   # obs. used (total)      62  
   data-arc span      4615 days (12.64 yr)  
   first obs. used      2007-03-15  
   last obs. used      2019-11-02  
   planetary ephem.      DE431  
   SB-pert. ephem.      SB431-N16  
   condition code      0  
   norm. resid. RMS      .74559  
   source      ORB  
   producer      Otto Matic  
   solution date      2019-Dec-05 04:27:24  

Additional Information
 Earth MOID = 1.80548 au 
 Jupiter MOID = 1.99337 au 
 T_jup = 3.242 
[ show covariance matrix ]

Ephemeris | Orbit Diagram | Orbital Elements | Mission Design | Physical Parameters | Discovery Circumstances | Close-Approach Data ]

Physical Parameter Table
Parameter Symbol Value Units Sigma Reference Notes
absolute magnitude H 17.1   n/a MPO448249  

523480 (2017 FT162)          Discovered 2009-Sep-27 by Spacewatch at Kitt Peak
Reference: Last Updated: 2018-05-31

[ show close-approach data ]
Ephemeris | Orbit Diagram | Orbital Elements | Mission Design | Physical Parameters | Discovery Circumstances | Close-Approach Data ]
ABOUT SSD CREDITS/AWARDS PRIVACY/COPYRIGHT GLOSSARY LINKS
FirstGov 2020-Jan-25 09:00 UT
(server date/time)  
NASA Home Page
Site Manager:   Ryan S. Park
Webmaster  Alan B. Chamberlin